Regional Weather Roundup
Issued by NWS

Home | Current Version | Previous Version | Text Only | Print | Product List | Glossary On
Versions: 1 2 3 4 5 6 7 8 9 10 11 12 13 14 15 16 17 18 19 20 21 22 23 24 25 26 27 28 29 30 31 32 33 34 35 36 37 38 39 40 41 42 43 44 45 46 47 48 49 50
000
ASUS44 KLIX 182112
RWRLA
LOUISIANA WEATHER ROUNDUP
NATIONAL WEATHER SERVICE NEW ORLEANS LA
300 PM CST SAT NOV 18 2017

NOTE: "FAIR" INDICATES FEW OR NO CLOUDS BELOW 12,000 FEET WITH NO
      SIGNIFICANT WEATHER AND/OR OBSTRUCTIONS TO VISIBILITY.
      SKY/WX - SKY CONDITION AND SIGNIFICANT WEATHER.
      TMP - AIR TEMPERATURE.    DP   - DEWPOINT TEMPERATURE.
      RH  - RELATIVE HUMIDITY.  PRES - PRESSURE.
      HX  - HEAT INDEX.         WCI  - WIND CHILL INDEX.

*  THESE STATIONS ARE NOT NWS OR FAA STATIONS AND ARE NOT UNDER
   NWS QUALITY CONTROL.

LAZ040-048-061>063-065-066-069-182200-
SOUTHEAST LOUISIANA

CITY           SKY/WX    TMP DP  RH WIND       PRES   REMARKS
N.O. INTL ARPT PTSUNNY   81  67  62 SW13G24   29.84S
N.O. LAKEFRONT CLOUDY    79  66  64 SW22G28   29.83S
N.O. DOWNTOWN* CLOUDY    79  66  64 S8G17     29.85S
RESERVE*       CLOUDY    80  65  58 W13G24    29.85R
SLIDELL        CLOUDY    78  64  61 SW8       29.83S
BATON ROUGE    PTSUNNY   78  67  68 SW13      29.81F
BOOTHVILLE     MOSUNNY   79  70  74 SW13      29.87F
BELLE CHASSE   PTSUNNY   79  69  71 SW18G28   29.84F
BOGALUSA*      NOT AVBL
GALLIANO*      MOCLDY    79  66  63 SW17G23   29.87R
NEW ROADS*     FAIR      80  68  66 SW14G21   29.81S
GONZALES*      CLOUDY    78  66  67 SW13G21   29.83S
HAMMOND*       CLOUDY    77  64  65 SW10G17   29.82F
HOUMA*         NOT AVBL
PORT FOURCHON* NOT AVBL

$$

LAZ041-044-053-054-182200-
SOUTHWEST LOUISIANA

CITY           SKY/WX    TMP DP  RH WIND       PRES   REMARKS
LAKE CHARLES   MOSUNNY   81  68  64 W16G26    29.82S
LAFAYETTE      MOSUNNY   80  73  79 SW12G21   29.82F
PATTERSON      PTSUNNY   78  70  76 SW14G22   29.86S
SALT POINT       N/A     76  70  82 VRB7      29.84F
NEW IBERIA     LGT RAIN  75  69  81 W9        29.84S
CHENAULT AIRPK PTSUNNY   82  68  61 W14       29.82S

$$

LAZ027-028-182200-
CENTRAL LOUISIANA

CITY           SKY/WX    TMP DP  RH WIND       PRES   REMARKS
FORT POLK      PTSUNNY   79  66  64 W10G20    29.80S
ALEXANDRIA INT PTSUNNY   81  64  56 W14G25    29.77S
ALEXANDRIA     CLOUDY    81  65  58 W16G22    29.78R

$$

LAZ001-002-182200-
NORTHWEST LOUISIANA

CITY           SKY/WX    TMP DP  RH WIND       PRES   REMARKS
SHREVEPORT     MOSUNNY   73  48  41 NW24G36   29.87R
BARKSDALE AFB  SUNNY     73  48  41 NW26G38   29.86R
DTN SHREVEPORT SUNNY     73  49  42 NW24G32   29.88R

$$

LAZ014-016-182200-
NORTHEAST LOUISIANA

CITY           SKY/WX    TMP DP  RH WIND       PRES   REMARKS
MONROE         PTSUNNY   82  64  54 SW20G32   29.72S
TALLULAH       CLOUDY    80  64  58 W9G20     29.74R

$$




USA.gov is the U.S. government's official web portal to all federal, state and local government web resources and services.